Location: Ottobeuren
(47.9410°N, 10.3007°E)
Time: 19:00:58
(UTC+01:00)

BlueWalker 3 - Visible Passes

Search period start: 28 February 2024 00:00
Search period end: 09 March 2024 00:00
Orbit: 485 x 500 km, 53.2° (Epoch: 27 February)

Date Brightness Start Highest point End Pass type
(mag) Time Alt. Az. Time Alt. Az. Time Alt. Az.
28 Feb 2.0 19:48:50 10° WNW 19:52:34 56° NNE 19:53:00 52° NE visible
28 Feb 5.2 21:27:17 10° WNW 21:27:29 11° WNW 21:27:29 11° WNW visible
29 Feb 2.1 19:24:58 10° WNW 19:28:42 55° NNE 19:30:13 31° E visible
29 Feb 4.5 21:03:24 10° WNW 21:04:42 19° W 21:04:42 19° W visible
01 Mar 2.2 19:01:06 10° WNW 19:04:49 54° NNE 19:07:28 18° E visible
01 Mar 3.6 20:39:30 10° WNW 20:41:57 30° WSW 20:41:57 30° WSW visible
02 Mar 2.2 18:37:13 10° WNW 18:40:55 53° NNE 18:44:37 10° E visible
02 Mar 2.8 20:15:37 10° WNW 20:19:09 39° SW 20:19:16 39° SSW visible
03 Mar 2.9 19:51:41 10° WNW 19:55:15 41° SW 19:56:39 28° S visible
04 Mar 2.9 19:27:45 10° WNW 19:31:20 42° SW 19:34:06 15° SSE visible
05 Mar 2.9 19:03:49 10° WNW 19:07:25 43° SW 19:11:00 10° SE visible
06 Mar 2.9 18:39:51 10° WNW 18:43:28 45° SW 18:47:04 10° SE visible
